Location: �treval
(48.4561°N, 6.0528°E)
Time: 05:29:44
(UTC+00:00)

Daily predictions for brighter satellites

Satellite Brightness Start Highest point End
(mag) Time Altitude Azimuth Time Altitude Azimuth Time Altitude Azimuth
SL-16 R/B 3.9 00:12:20 34° NE 00:12:20 34° NE 00:16:42 10° N
Cosmos 1943 Rocket 4.1 00:17:16 24° N 00:17:16 24° N 00:19:51 10° NNE
CZ-2D R/B 4.4 00:18:48 10° NE 00:20:45 19° NE 00:20:45 19° NE
Cosmos 2297 Rocket 4.0 00:24:58 10° NNW 00:28:49 28° NNE 00:28:49 28° NNE
Resurs 1-4 Rocket 4.1 00:32:35 10° NNE 00:34:54 23° NE 00:34:54 23° NE
Cosmos 2369 Rocket 4.0 00:41:05 27° N 00:41:05 27° N 00:44:02 10° NNE
CZ-4C R/B 4.0 00:47:10 26° NNW 00:47:29 26° NNW 00:52:56 10° NE
Cosmos 2218 Rocket 4.4 01:18:38 10° N 01:24:06 61° NNE 01:24:06 61° NNE
Cosmos 2227 Rocket 3.4 01:21:44 10° NNW 01:25:13 36° N 01:25:13 36° N
Cosmos 2366 rocket 4.4 01:21:15 10° N 01:26:34 60° NNE 01:26:34 60° NNE
Lacrosse 5 4.1 01:32:48 17° E 01:32:48 17° E 01:34:45 10° ENE
USA 234 3.6 01:27:09 10° ESE 01:33:34 62° NNE 01:37:44 23° NW
ADEOS II 3.1 01:34:18 10° NNE 01:38:28 43° ENE 01:38:28 43° ENE
Cosmos 2181 Rocket 4.1 01:47:57 66° N 01:47:57 66° N 01:53:13 10° N
IDEFIX/ARIANE 42P 4.3 01:47:49 10° NE 01:52:10 25° E 01:53:40 22° ESE
Cosmos 1241 Rocket 4.5 01:54:48 76° N 01:54:48 76° N 02:00:47 10° NE
SL-16 R/B 3.8 01:57:26 29° NW 01:57:26 29° NW 02:00:34 10° NNW
ARIANE 5 R/B 3.6 01:56:39 10° NNE 02:01:24 37° E 02:01:51 36° ESE
IRS-1D 3.9 01:57:10 10° NNE 02:01:47 65° NE 02:01:47 65° NE
CZ-2D R/B 3.0 01:58:23 10° N 02:02:04 39° NNW 02:02:04 39° NNW
ATLAS 5 CENTAUR R/B 3.0 02:07:56 35° N 02:07:56 35° N 02:11:11 10° NE
NPP 4.3 02:04:23 10° N 02:08:28 45° NNW 02:08:28 45° NNW
Cosmos 2297 Rocket 3.9 02:08:47 10° NW 02:10:32 20° NW 02:10:32 20° NW
CBERS-1 4.2 02:09:37 10° NNE 02:13:59 65° N 02:13:59 65° N
Resurs 1-4 Rocket 3.2 02:12:22 10° N 02:15:58 34° NW 02:15:58 34° NW
Cosmos 2082 3.7 02:12:57 10° NNW 02:18:41 80° ENE 02:20:23 47° SE
USA 305 4.4 02:22:42 30° ESE 02:22:42 30° ESE 02:25:27 10° ENE
USA 306 4.3 02:26:37 33° ESE 02:26:37 33° ESE 02:29:33 10° ENE
X-37B 3.8 02:29:08 11° E 02:29:08 11° E 02:29:21 10° E
CZ-2D R/B 4.5 02:24:30 10° NNE 02:28:30 42° E 02:28:45 41° ESE
SJ 16-02 3.9 02:25:20 10° N 02:28:44 21° NE 02:32:07 10° ESE
Meteor 1-25 Rocket 4.3 02:24:57 10° N 02:30:49 81° ENE 02:33:00 40° SSE
Cosmos 1697 Rocket 2.8 02:32:33 59° SSE 02:33:24 69° ESE 02:39:00 10° NNE
ASTEX 1 4.1 02:29:35 10° NNE 02:34:29 52° E 02:36:22 34° SSE
IRS-P3 3.9 02:29:44 10° NNE 02:35:06 86° WNW 02:35:28 78° SW
H-2A R/B 3.6 02:33:22 10° SE 02:37:20 35° ENE 02:41:26 10° N
Cosmos 1980 Rocket 3.2 02:35:19 29° SSE 02:37:37 42° ESE 02:42:55 10° NE
USA 267 3.2 02:33:55 10° NE 02:40:30 89° SSE 02:42:17 53° SW
Cosmos 1602 4.3 02:39:56 10° N 02:43:13 54° NE 02:43:13 54° NE
NOSS 2-2 (E) 4.4 02:39:06 10° NW 02:44:45 82° SW 02:52:39 10° SE
Cosmos 2263 Rocket 3.5 02:39:28 10° NNW 02:44:48 41° NE 02:50:08 10° ESE
ERS-1 4.4 02:39:39 10° NNE 02:44:48 86° ESE 02:45:42 62° S
SL-8 R/B 3.5 02:46:01 84° SSE 02:46:01 84° SSE 02:50:43 10° ESE
Cosmos 1818 4.1 02:46:11 42° WNW 02:46:41 44° NW 02:51:54 10° NNE
ATLAS 2AS CENTAUR R/B 4.4 02:43:45 10° NW 02:50:42 34° NNE 02:57:11 10° E
USA 307 3.2 02:52:25 57° SE 02:52:25 57° SE 02:56:30 10° ENE
NOSS 2-2 (D) 4.4 02:47:39 10° NW 02:53:11 84° SW 03:00:55 10° SE
Cosmos 1821 Rocket 3.9 02:47:56 10° NNW 02:54:11 66° W 02:56:29 39° SSW
USA 308 3.1 02:55:23 60° SE 02:55:24 60° SE 02:59:36 10° ENE
Cosmos 1470 Rocket 3.4 02:51:07 10° NNW 02:55:25 75° WNW 02:55:25 75° WNW
Spot 4 Rocket 4.1 02:52:32 10° NNE 02:57:43 78° ESE 02:59:44 38° S
SL-24 R/B 4.2 02:59:50 62° WSW 03:00:08 64° W 03:05:19 10° NNW
Landsat 5 4.0 03:00:49 10° SSE 03:05:18 67° ENE 03:09:47 10° N
Cosmos 1934 Rocket 3.8 03:03:11 10° N 03:09:15 82° W 03:15:19 10° S
Cosmos 1777 Rocket 4.0 03:04:49 10° NNW 03:09:55 54° WSW 03:12:07 32° SSW
Cosmos 1782 2.7 03:10:11 66° SSW 03:10:43 83° W 03:14:47 10° N
Cosmos 2227 Rocket 4.3 03:06:27 10° NW 03:06:57 12° NW 03:06:57 12° NW
Cosmos 1238 Rocket 4.0 03:04:49 10° N 03:11:32 88° W 03:17:46 10° S
Cosmos 1656 4.3 03:12:05 35° WNW 03:13:08 38° NW 03:18:18 10° NNE
Lacrosse 5 1.8 03:12:00 49° SW 03:13:25 89° SSE 03:18:32 10° NE
ADEOS Rocket 3.9 03:09:22 10° SE 03:15:57 53° ENE 03:21:55 10° N
CZ-4B R/B 4.0 03:13:40 10° ESE 03:16:08 21° ENE 03:18:38 10° NNE
Cosmos 1515 Rocket 3.5 03:15:07 48° SSW 03:16:15 72° W 03:20:42 10° N
USA 234 3.3 03:10:15 10° SE 03:16:39 57° SW 03:23:06 10° WNW
CZ-2C R/B 2.7 03:13:39 10° NNE 03:17:25 83° ESE 03:18:32 45° S
Meteor 1-20 Rocket 4.5 03:12:40 10° NNW 03:17:48 42° W 03:18:42 39° WSW
ADEOS II 3.0 03:14:24 10° N 03:18:52 29° WNW 03:19:23 28° WNW
Nadezhda 3 Rocket 4.2 03:18:39 35° SW 03:20:52 50° WNW 03:26:51 10° N
USA 276 2.0 03:21:38 81° NNW 03:21:38 81° NNW 03:24:52 10° ENE
Cosmos 972 Rocket 4.1 03:24:15 39° WSW 03:25:38 52° WNW 03:30:28 10° NNE
CSL-04 DEB 4.4 03:22:38 10° S 03:26:55 77° WSW 03:31:19 10° NNW
Cosmos 44 3.4 03:24:49 29° SSW 03:26:58 62° ESE 03:31:34 10° NE
Cosmos 1356 3.3 03:24:36 10° NNW 03:28:01 64° W 03:28:28 57° SW
MSX 3.8 03:22:27 10° NNE 03:28:15 79° WNW 03:32:39 18° SSW
Cosmos 1328 Rocket 4.3 03:28:50 33° WNW 03:29:02 33° WNW 03:33:06 10° N
Timation 1 Rocket 4.4 03:23:33 10° NW 03:29:24 56° WSW 03:35:14 10° S
Cosmos 921 Rocket 3.5 03:27:48 16° S 03:30:58 57° ESE 03:35:05 10° NNE
Cosmos 2278 3.7 03:28:10 28° SW 03:31:18 76° WNW 03:37:02 10° NNE
IDEFIX/ARIANE 42P 2.8 03:26:55 10° N 03:32:03 52° WNW 03:34:28 29° SW
Cosmos 1605 Rocket 4.0 03:25:38 10° N 03:32:03 85° W 03:38:27 10° S
Meteor 1-11 Rocket 4.5 03:26:23 10° N 03:32:08 56° ENE 03:37:43 10° SSE
Cosmos 1933 Rocket 3.8 03:28:43 10° NNW 03:32:53 45° W 03:34:17 33° SW
CZ-3B R/B 2.8 03:32:05 30° WNW 03:33:35 51° N 03:42:56 10° ENE
Cosmos 2228 Rocket 3.0 03:31:12 18° S 03:34:24 88° W 03:38:50 10° N
Cosmos 1151 Rocket 4.2 03:37:30 25° WNW 03:37:33 25° WNW 03:41:10 10° NNW
Cosmos 2369 4.1 03:36:41 28° WSW 03:39:21 48° NW 03:44:55 10° NNE
ARIANE 5 R/B 3.2 03:35:52 10° N 03:40:27 34° WNW 03:42:10 27° WSW
CZ-4C R/B 3.4 03:42:39 28° SSW 03:44:05 43° W 03:47:33 10° NNW
ALOS 4.0 03:42:54 10° NNE 03:47:08 33° E 03:51:20 10° SSE
IRIDIUM 106 4.3 03:42:47 10° N 03:48:02 85° W 03:53:15 10° S
Cosmos 1536 3.9 03:46:48 10° N 03:50:47 49° ENE 03:54:44 10° SSE
Cosmos 1869 Rocket 3.4 03:47:35 10° NNW 03:51:56 70° W 03:56:14 10° S
ATLAS 5 CENTAUR R/B 3.9 03:49:29 10° NW 03:52:31 17° NNW 03:55:51 10° NNE
Cosmos 1484 Rocket 4.4 03:52:17 10° NNE 03:56:01 38° E 03:59:45 10° SSE
Meteor 1-4 Rocket 2.6 03:53:11 10° S 03:56:37 76° E 04:00:08 10° NNE
USA 305 3.1 03:58:51 22° W 04:01:25 62° NNW 04:05:39 10° ENE
X-37B 1.2 04:01:25 27° WSW 04:02:44 43° S 04:05:47 10° ESE
Cosmos 1689 Rocket 4.1 04:01:47 10° SE 04:04:28 31° ENE 04:07:10 10° N
USA 306 3.1 04:02:46 21° W 04:05:30 60° NNW 04:09:44 10° ENE
Cosmos 2100 Rocket 4.3 04:00:15 10° N 04:06:39 75° E 04:13:02 10° SSE
Meteor 1-31 Rocket 4.2 04:03:11 10° NNE 04:06:48 39° E 04:10:25 10° SSE
Cosmos 1763 Rocket 4.0 04:01:43 10° S 04:06:58 66° ESE 04:12:15 10° NNE
Cosmos 1727 Rocket 4.0 04:00:41 10° S 04:07:02 85° W 04:13:25 10° N
Cosmos 389 Rocket 3.7 04:06:12 21° W 04:07:11 24° WNW 04:10:09 10° NNW
SJ 16-02 1.5 04:03:21 10° NNW 04:07:37 50° WSW 04:11:51 10° S
PSLV R/B 3.6 04:05:15 10° N 04:09:24 57° WNW 04:13:30 10° SSW
Cosmos 2360 Rocket 4.1 04:06:45 10° SSE 04:11:42 32° ESE 04:16:39 10° NE
H-2A R/B 3.0 04:09:37 10° SSW 04:13:22 28° W 04:17:12 10° NW
ERS-2 2.6 04:10:47 10° SSW 04:14:10 36° W 04:17:36 10° NNW
CZ-2C R/B 2.6 04:12:01 10° N 04:17:01 59° WNW 04:22:06 10° SSW
Cosmos 1697 Rocket 3.9 04:14:18 14° W 04:17:53 26° NW 04:22:33 10° N
NOSS 3-4 (A) 4.1 04:11:39 10° NW 04:18:35 76° NE 04:26:16 10° SE
NOSS 3-4 (C) 4.1 04:11:45 10° NW 04:18:41 76° NE 04:26:23 10° SE
Gbstr 26 Del rocket 4.4 04:11:24 10° WNW 04:19:25 70° SSW 04:26:28 10° SE
PAYLOAD A 4.1 04:16:02 10° N 04:20:33 46° WNW 04:25:02 10° SW
Cosmos 1980 Rocket 2.8 04:17:07 14° WSW 04:21:40 38° NW 04:26:58 10° NNE
USA 267 3.8 04:17:00 10° ENE 04:23:14 49° NNW 04:29:28 10° W
FENGYUN 3A 3.9 04:19:18 10° NNE 04:24:43 74° ESE 04:30:06 10° S
SJ-6F 4.4 04:22:12 10° N 04:26:20 71° WNW 04:30:23 10° SSW
Meteor 1-10 Rocket 4.5 04:21:06 10° SSW 04:26:44 54° WNW 04:32:31 10° N
Cosmos 2322 Rocket 2.5 04:21:11 10° SSW 04:26:49 72° ESE 04:32:31 10° NNE
Cosmos 990 Rocket 4.1 04:22:14 10° NNW 04:27:17 52° WSW 04:32:18 10° S
SL-8 R/B 4.2 04:24:00 11° W 04:28:13 40° SSW 04:32:41 10° SE
Cosmos 1459 Rocket 3.9 04:22:17 10° N 04:28:26 84° W 04:34:29 10° S
CZ-4C R/B 4.1 04:22:18 10° NW 04:28:40 40° NNE 04:36:03 10° ESE
NOSS 3-3 (A) 4.0 04:22:50 10° SW 04:28:41 73° NW 04:35:24 10° NE
Cosmos 2263 Rocket 2.6 04:23:31 10° NW 04:28:43 39° WSW 04:33:56 10° S
NOSS 3-3 (C) 4.0 04:23:01 10° SW 04:28:48 73° NW 04:35:28 10° NE
Cosmos 1812 3.6 04:28:03 10° SW 04:31:28 30° WNW 04:34:55 10° N
Cosmos 468 Rocket 4.0 04:26:19 10° SSW 04:31:37 73° WNW 04:36:54 10° NNE
USA 307 3.5 04:28:36 12° W 04:32:28 49° NNW 04:36:37 10° ENE
SL-16 R/B 2.2 04:28:50 10° SSW 04:34:31 85° WNW 04:40:14 10° NNE
USA 308 3.5 04:31:34 11° W 04:35:35 48° NNW 04:39:44 10° ENE
Cosmos 1844 Rocket 3.3 04:30:13 10° NNW 04:35:50 62° ENE 04:41:25 10° SE
COSMO-SKYMED 1 2.9 04:31:40 10° SSE 04:35:59 73° ENE 04:40:20 10° N
SL-4 R/B 3.6 04:34:49 10° SSW 04:39:05 37° SE 04:43:31 10° ENE
Cosmos 540 Rocket 4.0 04:35:07 10° S 04:40:13 66° ESE 04:45:22 10° NNE
ATLAS CENTAUR R/B 3.4 04:31:59 10° WNW 04:41:38 57° NNE 04:45:28 10° E
Cosmos 1666 3.4 04:38:27 10° NNW 04:41:52 31° W 04:45:15 10° SSW
ATLAS 2AS CENTAUR R/B 3.0 04:35:05 10° NW 04:42:43 86° NE 04:49:41 10° SE
ERBS 2.2 04:43:31 10° SW 04:46:52 83° NW 04:50:15 10° NE
Cosmos 1544 3.9 04:44:16 10° N 04:47:51 55° ENE 04:51:22 10° SSE
CZ-4B R/B 2.4 04:45:42 10° SSW 04:48:19 24° W 04:50:59 10° NW
